Regional Weather Roundup
Issued by NWS

Home | Current Version | Previous Version | Graphics & Text | Print | Product List | Glossary On
Versions: 1 2 3 4 5 6 7 8 9 10 11 12 13 14 15 16 17 18 19 20 21 22 23 24 25 26 27 28
000
ASUS45 KCYS 260710
RWRWY

WYOMING REGIONAL WEATHER ROUNDUP
NATIONAL WEATHER SERVICE CHEYENNE WY
100 AM MDT FRI AUG 26 2016

NOTE:  "FAIR" INDICATES FEW OR NO CLOUDS BELOW 12,000 FEET
WITH NO SIGNIFICANT WEATHER AND/OR OBSTRUCTIONS TO VISIBILITY.

WYZ001-260800-
YELLOWSTONE NATIONAL PARK

CITY           SKY/WX    TMP DP  RH WIND       PRES   REMARKS
LK YELLOWSTONE   N/A     45  36  70 CALM      30.29F
W YELLOWSTONE  NOT AVBL

$$
WYZ002>013-054>058-071-098>099-260800-
NORTHERN WYOMING

CITY           SKY/WX    TMP DP  RH WIND       PRES   REMARKS
JACKSON        FAIR      43  34  70 CALM      30.21R
CODY           FAIR      48  41  76 S8        30.19S
GREYBULL       LGT RAIN  58  44  60 CALM      30.14R
WORLAND        CLOUDY    52  49  89 CALM      30.15R
SHERIDAN       FAIR      52  45  77 CALM      30.14F
BUFFALO        FAIR      54  42  64 CALM      30.18F
GILLETTE       FAIR      55  45  68 S12       30.17F
HULETT         FAIR      52  41  66 S6        30.20F
NEWCASTLE      CLOUDY    55  45  67 S7        30.22F

$$
WYZ014>020-022>026-101>103-260800-
CENTRAL WYOMING

CITY           SKY/WX    TMP DP  RH WIND       PRES   REMARKS
BIG PINEY      FAIR      35  33  92 N7        30.26S WCI  29
PINEDALE       FAIR      36  32  87 CALM      30.27S
DUBOIS         FAIR      39  32  75 CALM      30.26S
LANDER         FAIR      49  43  80 CALM      30.19F
RIVERTON       FAIR      47  46  97 NW8       30.20S
CASPER         CLOUDY    51  48  89 SE5       30.24R
DOUGLAS        RAIN      52  50  93 N12       30.23F FOG

$$
WYZ021-027>030-104>119-260800-
SOUTHERN WYOMING

CITY           SKY/WX    TMP DP  RH WIND       PRES   REMARKS
EVANSTON       FAIR      51  30  44 E15       30.22S
FORT BRIDGER   FAIR      50  34  54 CALM      30.26S
ROCK SPRINGS   FAIR      51  37  58 SE13      30.23F
DIXON          FAIR      56  36  47 W8        30.27R
RAWLINS        MOCLDY    46  36  68 NW5       30.28S
SARATOGA       CLOUDY    46  41  81 W8        30.28R
LARAMIE        FAIR      50  42  74 S9        30.25F
CHEYENNE       FAIR      53  45  74 S7        30.23F
TORRINGTON     FAIR      55  46  71 E15       30.17S
PINE BLUFFS    FAIR      46  43  87 CALM      30.22S

$$




USA.gov is the U.S. government's official web portal to all federal, state and local government web resources and services.